www.pogodaiklimat.ru

Погода и климат >> Архив погоды >> Португалия >> Вила-Реал


ПОГОДА в Вила-Реале

  • Прогноз погоды в Вила-Реале
  • Монитор погоды в Вила-Реале

АРХИВ ПОГОДЫ в Вила-Реале

Время (UTC), дата Ветер
(напр.,м/с)
 
Видим.   Явления Облачность Т
(С)
Тd
(С)
f
(%)
Тe
(С)
Тes
(С)
Комфортность P
(гПа)
Po
(гПа)
Тmin
(С)
Tmax
(С)
R
(мм)
R24
(мм)
S
(см)
19 12.06 СЗ 4-7
{8}
н/о н/о +16.3 +6.4 52 +16 +16 1011.6 947.1
20 12.06 З 3-6
{6}
н/о н/о +14.2 +6.7 61 +13 +13 1012.0 947.0
21 12.06 ЮЗ 2
{6}
н/о н/о +13.1 +6.9 66 +13 +13 1012.7 947.4
22 12.06 ЮЗ 2
{5}
н/о н/о +11.6 +7.0 73 +11 +11 1013.1 947.5
23 12.06 Ю 2
{5}
н/о н/о +10.2 +6.7 79 +9 +9 1013.2 947.3
00 13.06 штиль 0 н/о н/о +9.1 +6.5 84 +8 +8 1013.2 947.1
01 13.06 штиль 0 н/о н/о +8.3 +6.4 88 +7 +7 1013.1 946.8
02 13.06 штиль 0 н/о н/о +7.7 +6.1 90 +7 +7 1013.2 946.8
03 13.06 штиль 0 н/о н/о +7.3 +5.9 91 +6 +6 1013.1 946.6
04 13.06 штиль 0 н/о н/о +7.1 +6.1 93 +6 +6 1013.0 946.4
05 13.06 штиль 0 н/о н/о +6.2 +5.5 95 +5 +5 1013.6 946.8
06 13.06 штиль 0 н/о н/о +6.9 +6.1 95 +6 +6 1013.6 946.9 +6.2
07 13.06 штиль 0 н/о н/о +9.3 +7.1 86 +9 +9 1013.1 947.0
08 13.06 н/о н/о +11.8 +7.0 72 1012.6 947.1
09 13.06 С 2 н/о н/о +13.4 +8.3 71 +13 +13 1012.2 947.1
10 13.06 С 2
{5}
н/о н/о +14.0 +6.0 59 +14 +14 1012.1 947.1
11 13.06 ЮЗ 3
{6}
н/о н/о +14.7 +7.0 60 +14 +14 1011.9 947.1
12 13.06 С 2
{7}
н/о н/о +16.9 +5.5 47 +17 +17 1011.3 947.0
13 13.06 С 3
{6}
н/о н/о +17.0 +5.6 47 +17 +17 1011.1 946.8
14 13.06 СЗ 4-8
{8}
н/о н/о +17.8 +4.5 41 +18 +18 1011.0 946.8
15 13.06 С 3-7
{7}
н/о н/о +18.1 +5.9 45 +18 +18 1010.9 946.8
16 13.06 СЗ 4-7
{8}
н/о н/о +18.0 +6.0 45 +18 +18 1010.9 946.8
17 13.06 З 4-8
{8}
н/о н/о +16.8 +5.5 47 +16 +16 1011.2 946.8
18 13.06 З 4-7
{8}
н/о н/о +16.1 +6.9 54 +15 +15 1011.4 946.8 +18.8
19 13.06 З 3-7
{8}
н/о н/о +15.1 +7.1 59 +15 +15 1012.0 947.2
20 13.06 З 3
{7}
н/о н/о +12.9 +6.7 66 +12 +12 1012.7 947.4
21 13.06 ЮЗ 3
{5}
н/о н/о +12.1 +6.9 70 +11 +11 1013.4 947.9
22 13.06 ЮЗ 1 н/о н/о +10.4 +6.1 75 +10 +10 1014.1 948.2
23 13.06 Ю 2 н/о н/о +9.4 +6.2 80 +8 +8 1014.4 948.2
00 14.06 Ю 1 н/о н/о +8.3 +5.9 85 +8 +8 1014.5 948.0
01 14.06 штиль 0 н/о н/о +8.0 +5.8 86 +7 +7 1014.3 947.8
02 14.06 штиль 0 н/о н/о +7.6 +6.0 90 +7 +7 1014.3 947.7
03 14.06 штиль 0 н/о н/о +6.9 +5.4 90 +6 +6 1014.5 947.7
04 14.06 штиль 0 н/о н/о +6.7 +5.5 92 +6 +6 1014.7 947.9
05 14.06 штиль 0 н/о н/о +6.5 +5.5 93 +5 +5 1014.8 947.9
06 14.06 штиль 0 н/о н/о +6.6 +5.8 95 +6 +6 1015.0 948.2 +6.2
07 14.06 С 1 н/о н/о +8.9 +7.6 92 +8 +8 1014.8 948.5
08 14.06 н/о н/о +10.0 +7.2 83 1014.8 948.8
09 14.06 С 2 н/о н/о +12.7 +8.4 75 +12 +12 1014.6 949.1
10 14.06
{6}
н/о н/о +13.8 +6.9 63 1014.7 949.5
11 14.06 З 3-6
{8}
н/о н/о +14.7 +5.6 54 +14 +14 1014.9 949.9
12 14.06 З 3-6
{8}
н/о н/о +15.4 +6.6 56 +15 +15 1015.1 950.2
13 14.06 З 3-6
{7}
н/о н/о +15.7 +5.7 51 +15 +15 1015.2 950.4
14 14.06
{8}
н/о н/о +16.4 +6.6 52 1015.2 950.5
15 14.06 З 4-7
{9}
н/о н/о +14.6 +6.8 59 +13 +13 1016.0 950.9
16 14.06 -6
{8}
н/о н/о +14.4 +7.2 62 1016.3 951.1
17 14.06 З 4-7
{7}
н/о н/о +14.3 +6.4 59 +13 +13 1016.5 951.3
18 14.06 З 4-7
{8}
н/о н/о +13.4 +6.9 65 +12 +12 1017.2 951.8 +16.6
19 14.06
{7}
н/о н/о +13.3 +7.3 67 1017.9 952.4
20 14.06 З 3-6
{6}
н/о н/о +12.7 +6.6 66 +11 +11 1018.5 952.8
21 14.06 С 1
{5}
н/о н/о +11.1 +6.8 75 +11 +11 1019.7 953.6
22 14.06 н/о н/о +11.3 +7.2 76 1020.2 954.1
23 14.06 штиль 0
{7}
н/о н/о +10.1 +7.1 82 +9 +9 1020.8 954.3
00 15.06 С 3
{5}
н/о н/о +10.9 +6.9 76 +9 +9 1020.6 954.4
01 15.06 н/о н/о +10.4 +7.2 81 1020.7 954.3
02 15.06 ЮЗ 2 н/о н/о +10.6 +7.5 81 +9 +9 1020.6 954.3
03 15.06 С 1
{5}
н/о н/о +9.0 +8.0 93 +8 +8 1021.0 954.3
04 15.06 штиль 0 н/о н/о +8.2 +7.4 95 +7 +7 1021.3 954.4
05 15.06 В 1 н/о н/о +7.9 +7.2 95 +7 +7 1021.6 954.7
06 15.06 штиль 0 н/о н/о +7.7 +7.0 95 +7 +7 1022.1 955.0 +7.5
07 15.06 н/о н/о +10.7 +8.6 87 1021.9 955.6
08 15.06 штиль 0 н/о н/о +12.5 +8.7 78 +12 +12 1022.0 956.0
09 15.06 С 1 н/о н/о +13.8 +8.1 68 +14 +14 1021.8 956.2
10 15.06 С 1 н/о н/о +14.7 +7.5 62 +15 +15 1021.7 956.2
11 15.06 н/о н/о +17.6 +8.9 57 1021.1 956.3
12 15.06 С 2 н/о н/о +17.0 +8.1 56 +17 +17 1021.1 956.1
13 15.06
{5}
н/о н/о +17.6 +7.3 51 1020.7 955.9
14 15.06 С 3
{6}
н/о н/о +19.7 +7.7 46 +21 +21 комфорт 1020.1 955.8
15 15.06 З 3-7
{7}
н/о н/о +20.3 +8.2 46 +22 +22 комфорт 1019.8 955.6
16 15.06 СЗ 3-6
{8}
н/о н/о +20.1 +7.7 45 +21 +21 комфорт 1019.4 955.3
17 15.06 СЗ 3-6
{7}
н/о н/о +19.0 +7.5 47 +20 +20 1019.7 955.3
18 15.06 СЗ 4-7
{7}
н/о н/о +18.4 +8.3 52 +19 +19 1019.8 955.2 +20.4
19 15.06 З 3
{6}
н/о н/о +17.3 +7.9 54 +17 +17 1019.7 954.9
20 15.06
{5}
н/о н/о +15.5 +8.0 61 1020.3 955.0
21 15.06 С 1 н/о н/о +13.6 +7.5 67 +14 +14 1021.2 955.5
22 15.06 штиль 0 н/о н/о +12.2 +8.1 76 +12 +12 1021.7 955.7
23 15.06 штиль 0 н/о н/о +11.5 +8.2 80 +11 +11 1022.0 955.7
00 16.06 штиль 0 н/о н/о +11.1 +8.2 82 +11 +11 1021.5 955.2
01 16.06 штиль 0 н/о н/о +9.8 +7.6 86 +9 +9 1021.4 954.8
02 16.06 С 1 н/о н/о +10.5 +7.7 83 +10 +10 1020.9 954.6
03 16.06 С 1 н/о н/о +9.6 +7.4 86 +9 +9 1020.6 954.1
04 16.06 С 1 н/о н/о +9.4 +7.4 87 +9 +9 1020.3 953.8
05 16.06 штиль 0 н/о н/о +9.5 +7.3 86 +9 +9 1020.4 953.9
06 16.06 штиль 0 н/о н/о +10.0 +7.9 87 +9 +9 1020.4 954.0 +8.9
07 16.06 штиль 0 н/о н/о +13.4 +8.9 74 +13 +13 1020.2 954.5
08 16.06 н/о н/о +15.0 +9.0 67 1019.8 954.5
09 16.06 С 2 н/о н/о +17.4 +9.7 61 +18 +18 1019.1 954.4
10 16.06 н/о н/о +20.2 +9.3 49 1018.2 954.1
11 16.06 С 1 н/о н/о +22.8 +9.4 42 +24 +24 комфорт 1017.2 953.7
12 16.06 С 1 н/о н/о +23.6 +8.7 39 +24 +24 комфорт 1016.5 953.2
13 16.06
{5}
н/о н/о +24.8 +8.9 36 1015.7 952.7
14 16.06 ЮЗ 3-6
{9}
н/о н/о +25.1 +9.0 36 +26 +26 жарко 1015.3 952.4
15 16.06 ЮЗ 3-7
{7}
н/о н/о +26.1 +9.8 36 +27 +27 жарко 1014.8 952.1
16 16.06 С 3-6
{7}
н/о н/о +25.0 +11.9 44 +27 +27 жарко 1014.9 952.0
17 16.06 -6
{6}
н/о н/о +23.6 +12.3 49 1015.1 951.9
18 16.06 З 4-7
{7}
н/о н/о +22.9 +11.9 50 +25 +25 комфорт 1015.5 952.2 +26.5
19 16.06 З 3
{6}
н/о н/о +20.9 +10.4 51 +23 +23 комфорт 1016.4 952.6
20 16.06 Ю 3
{5}
н/о н/о +17.7 +10.3 62 +18 +18 1017.3 952.8
21 16.06 Ю 3
{5}
н/о н/о +15.3 +9.2 67 +15 +15 1018.3 953.2
22 16.06 Ю 3
{5}
н/о н/о +13.8 +8.6 71 +13 +13 1018.7 953.2
23 16.06 штиль 0
{5}
н/о н/о +12.6 +8.3 75 +12 +12 1019.0 953.3
00 17.06 штиль 0 н/о н/о +12.1 +8.4 78 +12 +12 1019.0 953.1
01 17.06 штиль 0 н/о н/о +11.3 +8.1 81 +11 +11 1019.1 953.1
02 17.06 штиль 0 н/о н/о +10.5 +7.8 83 +10 +10 1018.9 952.7
03 17.06 штиль 0 н/о н/о +9.9 +7.7 86 +9 +9 1018.5 952.2
04 17.06 штиль 0 н/о н/о +9.1 +7.6 90 +8 +8 1018.6 952.1
05 17.06 штиль 0 н/о н/о +9.2 +8.1 93 +8 +8 1018.5 952.0
06 17.06 штиль 0 н/о н/о +9.7 +8.1 90 +9 +9 1018.2 951.9 +8.9
07 17.06 штиль 0 н/о н/о +13.0 +9.1 77 +13 +13 1018.0 952.3
08 17.06 20 км 3/0
[Ac trans Ci fib]
+16.1 +10.6 70 1016.6 951.8
09 17.06 С 1 20 км 4/0 1500 м
[Ac trans Ci fib]
+17.3 +11.1 67 +18 +29 1016.0 951.4
10 17.06 С 1 20 км 8/0
[Ac trans Ci fib]
+19.6 +10.4 55 +22 +34 комфорт 1015.4 951.4
11 17.06 20 км 9/0
[Ac As Ci fib]
+21.1 +8.0 43 1015.1 951.3
12 17.06 Ю 3
{5}
20 км 10/0 1500 м
[Ac trans Ci sp]
+20.6 +5.9 38 +22 +32 комфорт 1015.3 951.5
13 17.06 ЮЗ 2
{6}
20 км 10/0
[Ac As Ci sp]
+20.5 +5.3 37 +22 +30 комфорт 1015.1 951.3
14 17.06 С 1 н/о н/о +19.8 +5.4 39 +22 +22 комфорт 1015.3 951.3
15 17.06 штиль 0 н/о н/о +19.8 +6.6 42 +20 +20 1014.8 950.9
16 17.06 штиль 0 н/о н/о +19.0 +8.0 49 +19 +19 1015.0 950.9
17 17.06 н/о н/о +19.1 +9.5 54 1014.5 950.4
18 17.06 С 1 н/о н/о +17.8 +11.6 67 +19 +19 1014.6 950.2 +21.7
19 17.06 С 1 н/о н/о +16.8 +11.3 70 +18 +18 1013.8 949.3 0.1
20 17.06 С 1 н/о н/о +16.5 +10.0 65 +17 +17 1013.4 948.9
21 17.06 С 1 н/о н/о +14.6 +10.4 76 +15 +15 1014.2 949.1 0.1
22 17.06 СВ 1 н/о н/о +14.1 +9.1 72 +15 +15 1014.4 949.2
23 17.06 штиль 0 н/о н/о +12.8 +8.7 76 +12 +12 1014.5 949.1
00 18.06 штиль 0 н/о н/о +13.2 +8.3 72 +13 +13 1014.1 948.8
01 18.06 штиль 0 н/о н/о +12.8 +8.5 75 +12 +12 1013.7 948.3
02 18.06 штиль 0 н/о н/о +12.1 +8.5 79 +12 +12 1013.1 947.6
03 18.06 штиль 0 н/о н/о +11.6 +8.6 82 +11 +11 1013.0 947.4
04 18.06 штиль 0 н/о н/о +11.9 +8.7 81 +11 +11 1012.8 947.3
05 18.06 штиль 0 н/о н/о +11.8 +9.1 84 +11 +11 1013.0 947.5
06 18.06 С 1 н/о н/о +13.0 +8.8 76 +13 +13 1013.0 947.7 +10.6 0.1
07 18.06 штиль 0 н/о н/о +13.8 +9.7 76 +13 +13 1012.9 947.8
08 18.06 С 1 20 км в посл. час ливневой дождь 10/10 420 м
[Cu med, cong]
+12.4 +10.9 91 +12 +12 1013.7 948.2 0.7
09 18.06 С 1 12 км дымка {ливн. осадки} 10/10 360 м
[Cu med, cong]
+13.3 +11.5 89 +13 +13 1013.6 948.3
10 18.06 15 км дымка 9/9 420 м
[Cu med, cong]
+15.7 +13.0 84 1013.2 948.5
11 18.06 Ю 4-9
{9}
20 км 9/9 420 м
[Cu med, cong]
+17.1 +13.0 77 +17 +18 1013.0 948.5
12 18.06 Ю 4-8
{9}
20 км {ливн. осадки} 9/9 500 м
[Cu med, cong]
+19.2 +12.0 63 +20 +22 1011.9 948.0 0.7
13 18.06 -8
{11}
12 км дымка 10/10 480 м
[Cu med, cong]
+17.4 +12.3 72 1012.2 947.9
14 18.06 Ю 4-8
{12}
н/о н/о +17.3 +12.8 75 +17 +17 1012.4 948.1
15 18.06 С 2
{9}
н/о н/о +15.9 +14.4 91 +16 +16 1013.1 948.5
16 18.06 С 2 н/о н/о +17.9 +15.1 84 +18 +18 1012.5 948.2
17 18.06 ЮЗ 3-7
{7}
н/о н/о +17.5 +14.0 80 +18 +18 1012.6 948.3
18 18.06 ЮЗ 4-7
{8}
н/о н/о +17.5 +13.5 77 +17 +17 1012.9 948.5 +19.5 1
19 18.06 Ю 3
{9}
н/о н/о +15.6 +14.4 93 +15 +15 1013.6 948.9 0.2
20 18.06 Ю 3
{5}
н/о н/о +15.1 +14.4 96 +14 +14 1014.0 949.1 1
21 18.06 С 1
{6}
н/о н/о +15.0 +14.6 97 +15 +15 1014.4 949.4
22 18.06
{5}
н/о н/о +14.9 +14.3 96 1014.6 949.6 0.4
23 18.06
{6}
н/о н/о +14.5 +14.2 98 1014.8 949.8 0.3
00 19.06 штиль 0 н/о н/о +14.2 +13.9 98 +14 +14 1014.6 949.5 0.2
01 19.06 н/о н/о +14.2 +13.8 97 1014.5 949.4
02 19.06 С 1 н/о н/о +13.9 +13.4 97 +14 +14 1014.5 949.3
03 19.06 С 1
{5}
н/о н/о +13.8 +13.4 97 +14 +14 1014.6 949.4
04 19.06 н/о н/о +13.8 +13.3 97 1014.7 949.5
05 19.06 штиль 0 н/о н/о +13.8 +13.3 97 +13 +13 1014.8 949.6
06 19.06 штиль 0 н/о н/о +14.1 +13.6 97 +14 +14 1015.0 949.8 +13.7 5
07 19.06 С 1 н/о н/о +14.0 +13.5 97 +14 +14 1015.7 950.5
08 19.06 З 2 3000 м в посл. час ливневой дождь 9/6 <50 м
[Cu med, cong Ci fib]
+14.1 +13.5 96 +13 +16 1016.1 950.8 0.2
09 19.06 С 2 20 км {ливн. осадки} 9/6 360 м
[Cu med, cong Ci fib]
+15.8 +13.0 83 +16 +19 1015.7 950.8
10 19.06
{5}
20 км 9/5 480 м
[Cu Sc Ci fib]
+17.9 +13.5 75 1015.4 951.0
11 19.06 ЮЗ 4-7
{9}
20 км 9/8 500 м
[Cu med, cong Ci fib]
+18.5 +12.8 69 +19 +21 1016.0 951.7
12 19.06 С 3
{7}
20 км 9/8 540 м
[Cu med, cong Ci fib]
+19.6 +12.6 64 +21 +24 комфорт 1015.6 951.6 0.2
13 19.06
{5}
20 км 9/8 540 м
[Cu med, cong Ci fib]
+19.3 +11.9 62 1015.6 951.5
14 19.06 СЗ 2
{6}
н/о н/о +20.0 +12.0 60 +22 +22 комфорт 1015.3 951.4
15 19.06 С 2
{5}
н/о н/о +19.3 +11.6 61 +21 +21 комфорт 1015.5 951.4
17 19.06 З 3-6
{6}
н/о н/о +18.8 +12.1 65 +20 +20 1015.4 951.2
18 19.06 С 3-6
{7}
н/о н/о +18.2 +12.1 68 +19 +19 1015.6 951.3 +20.6 0.2
19 19.06
{7}
н/о н/о +18.4 +12.6 69 1015.8 951.5
20 19.06 СЗ 1 н/о н/о +15.9 +11.5 75 +17 +17 1016.3 951.4

 

Местоположение метеостанции Вила-Реал (Португалия): широта 41.27 долгота -7.72 высота над уровнем моря 562 м.

В архиве по умолчанию представлена погода в Вила-Реале за последнюю неделю. Архивные данные за месяц целиком и за предыдущие месяцы, начиная с января 2011 года, Вы можете получить, выбрав интересующий диапазон дат из раскрывающегося списка и нажав кнопку "Ввод!".


*Определитесь, кто Вы:
робот инопланетянин человек

Внимание! Время в таблицах - всемирное. Для получения местного времени необходимо прибавить поправку, которая равна 0 ч.

Смотрите также архив погоды в соседних городах и на ближайших метеорологических станциях:

Погода в Визеу (Португалия) (63 км)
Погода в Порту (Португалия) (80 км)
Погода в Оваре (Португалия) (86 км)
Погода в Хинсо-де-Лимии (Испания) (90 км)
Погода в Обсерватории Penhas Douradas (Португалия) (96 км)
Погода в Виана-ду-Каштелу (Португалия) (99 км)
Погода в Брагансе (Португалия) (101 км)
Погода в Витигудино (Испания) (111 км)
Погода в Саэлисес-эль-Чико (Испания) (118 км)
Погода в Оренсе (Испания) (119 км)

Пояснения к столбцам:

Ветер - указаны скорость ветра в м/с - средняя за 10 мин, порывы в срок и между сроками (в фигурных скобках) и направление, откуда дует ветер: С - северный, СВ - северо-восточный, В - восточный, ЮВ - юго-восточный, Ю - южный, ЮЗ - юго-западный, З - западный, СЗ - северо-западный.
Видимость - горизонтальная дальность видимости в метрах или километрах. При видимости от 1 до 10 км при отсутствии осадков обычно наблюдается дымка, при ухудшении видимости до 1 км и менее - туман. В сухую погоду видимость может ухудшаться дымом, пылью или мглою.
Явления - указаны атмосферные явления, наблюдавшиеся в срок или в последний час перед сроком; фигурными скобками обозначены явления, наблюдавшиеся между сроками (за 1-3 часа до срока); квадратными скобками обозначены град или гололедные отложения с указанием их диаметра в мм.
Облачность - указаны через наклонную черту общая и нижняя облачность в баллах и высота нижней границы облаков в метрах; квадратными скобками обозначены формы облаков: Ci - перистые, Cs - перисто-слоистые, Cc - перисто-кучевые, Ac - высококучевые, As - высокослоистые, Sc - слоисто-кучевые, Ns - слоисто-дождевые, Cu - кучевые, Cb - кучево-дождевые. Подробнее классификацию облаков см. в Атласе облаков (PDF).
T - Температура воздуха - температура, измеренная на высоте 2 м над землей.
Td - Температура точки росы - температура, при понижении до которой содержащийся в воздухе водяной пар достигнет насыщения.
f - Относительная влажность воздуха - влажноcть воздуха, измеренная на высоте 2 м над землей.
Te - Эффективная температура - температура, которую ощущает одетый по сезону человек в тени. Характеристика душности погоды. При расчете учитывается влияние влажности воздуха и скорости ветра на теплоощущения человека.
Tes - Эффективная температура на солнце - температура, которую ощущает человек, с поправкой на солнечный нагрев. Характеристика знойности погоды. Зависит от высоты солнца над горизонтом, облачности и скорости ветра. Ночью, в пасмурную погоду, а также при ветре 12 м/с и более поправка равна нулю.
P - Атмосферное давление - приведенное к уровню моря атмосферное давление.
Po - Атмосферное давление - измеренное на уровне метеостанции атмосферное давление.
Tmin - Минимальная температура - минимум температуры воздуха на высоте 2 м над землей.
Tmax - Максимальная температура - максимум температуры воздуха на высоте 2 м над землей.
R - Количество осадков - Количество выпавших осадков за период времени, мм. При наведении курсора мыши на число - период времени, за который выпало указанное количество осадков.
R24 - Количество осадков - Количество выпавших осадков за 24 часа, мм.
S - Снежный покров - Высота снежного покрова, см. При наведении курсора мыши на число - состояние снежного покрова и степень покрытия местности в баллах.